Theta_e
300 301 296 295 294 294 294 294 293 294 294 293 291 291 291 291 291 292 291 290 290 288 287 286 285 284 283 283 282 282 281 281 281 280 281 281 283 282 282 282 283 284 284
297 298 294 293 293 294 294 294 293 293 294 294 294 293 294 292 293 292 290 290 288 287 287 286 284 284 283 282 282 282 281 281 280 280 279 279 280 282 282 282 282 281 283
297 298 295 290 291 292 293 294 294 293 294 294 293 286 286 285 286 287 289 289 288 287 287 285 285 284 283 282 281 281 281 280 279 279 280 277 278 278 280 281 281 281 281
294 294 294 292 291 293 293 294 294 293 293 293 292 291 291 289 290 291 291 289 288 287 286 286 285 284 283 282 282 281 280 280 280 280 281 280 279 277 276 279 280 281 281
292 293 294 293 293 292 291 292 292 292 292 293 293 292 292 293 289 289 288 287 287 286 285 285 284 283 283 282 281 280 280 280 280 280 280 279 278 279 277 276 277 279 279
292 291 291 291 291 290 289 289 289 290 291 292 292 291 292 289 286 286 287 286 286 285 284 284 284 283 283 282 282 281 280 280 280 280 280 280 278 277 276 276 276 276 278
290 290 292 292 290 289 287 287 287 287 289 289 291 291 291 287 287 286 287 285 285 285 284 284 283 282 282 282 282 281 281 280 279 280 279 280 279 280 278 277 276 275 277
289 290 291 290 289 289 286 286 286 286 287 287 288 288 289 288 288 286 287 287 287 287 286 284 284 283 282 281 281 281 281 280 280 279 279 279 279 280 280 278 277 274 275
289 291 291 290 289 288 286 285 285 286 286 286 287 287 288 287 287 285 285 286 286 286 284 284 283 282 282 281 280 280 280 280 280 279 279 278 279 280 279 279 278 276 271
290 291 290 290 290 288 286 285 285 286 286 286 287 288 288 288 286 284 284 285 285 284 283 283 283 282 281 281 280 280 279 279 279 279 278 278 278 278 278 279 278 277 273
293 291 291 290 290 290 288 285 285 285 285 285 285 286 286 285 284 284 285 285 285 284 283 283 283 282 281 281 280 280 279 279 278 278 278 277 278 277 277 277 277 276 275
287 288 288 288 288 287 288 289 288 286 286 286 285 284 284 283 284 285 284 285 284 284 284 283 282 282 281 281 280 279 279 278 277 277 277 276 277 276 276 276 275 275 275
285 286 286 286 287 287 287 287 288 288 289 285 284 284 284 283 285 285 285 284 284 283 283 283 282 282 281 281 281 280 279 278 278 277 277 276 276 275 274 274 273 273 275
283 284 284 284 285 286 287 286 286 287 287 287 284 284 283 284 285 286 284 283 284 283 283 283 282 282 281 280 280 279 278 278 277 277 276 276 275 275 274 273 273 273 272
282 282 283 283 284 284 285 286 286 286 286 285 285 285 285 285 285 284 283 283 283 283 283 282 282 281 281 280 279 279 278 277 276 276 276 275 275 278 276 274 273 273 272
282 283 283 283 283 283 284 284 285 285 285 284 284 285 285 284 283 283 283 282 281 282 282 281 281 280 280 284 284 281 278 277 275 274 274 274 274 277 279 279 278 276 271
280 281 282 282 282 283 284 283 284 285 284 284 284 284 284 283 283 282 281 282 281 281 281 281 280 279 280 284 285 284 278 277 276 275 274 274 274 274 276 280 280 280 280
280 281 281 282 282 283 283 284 284 283 283 283 284 284 283 282 282 280 281 281 281 281 280 280 280 280 279 284 286 284 278 277 276 275 275 274 274 274 275 276 277 277 277
280 280 281 281 281 281 281 281 281 281 281 282 283 282 281 281 281 280 279 280 280 279 280 280 280 279 279 283 286 284 277 276 275 275 275 275 275 277 279 275 273 274 275
280 279 280 279 279 279 280 279 278 278 279 281 282 283 281 279 278 279 278 279 279 279 279 279 279 278 278 282 286 284 276 274 274 275 276 277 276 279 280 274 273 272 273
278 278 277 276 278 279 279 277 276 276 278 280 278 278 280 281 279 277 274 274 277 277 277 276 276 277 277 278 285 285 276 274 274 274 274 275 279 279 280 280 274 273 275
275 275 274 275 276 277 276 274 274 276 277 275 275 276 280 282 280 276 275 276 276 274 271 273 272 274 275 279 285 286 279 279 274 274 275 275 279 280 280 280 278 279 277
274 274 272 272 273 274 273 271 273 273 272 272 272 273 273 275 280 277 276 275 275 273 272 272 271 271 273 275 283 286 282 280 276 275 276 277 280 280 280 280 279 274 270
272 272 271 270 270 271 271 270 270 270 268 268 268 270 270 273 277 277 277 276 275 274 274 273 272 272 272 274 278 282 282 280 277 277 277 277 278 279 274 274 275 271 269
271 271 269 269 268 269 268 267 267 266 265 265 265 266 268 269 272 277 276 276 276 277 275 275 274 272 271 273 278 281 280 277 275 275 275 274 272 270 269 268 268 268 267
269 267 267 266 265 265 264 264 264 263 262 262 263 264 266 266 269 272 275 279 280 280 281 281 277 275 277 278 280 282 283 280 279 272 271 269 268 267 267 266 266 266 266
Wind_Speed
23 17 8 9 9 8 12 15 16 18 14 12 12 9 14 11 10 10 12 12 10 10 9 6 7 6 7 6 5 3 4 1 1 3 3 4 3 5 4 3 4 5 5
16 17 9 8 10 12 15 14 17 16 16 14 13 7 11 9 11 10 11 13 12 11 10 10 8 9 6 7 7 5 4 2 1 4 2 2 2 2 3 2 3 4 3
19 19 10 5 7 10 13 15 16 18 17 16 11 4 6 4 4 6 8 11 14 14 14 13 10 10 8 8 7 6 6 5 1 2 4 3 4 0 2 1 1 1 3
9 9 9 6 9 13 9 11 13 15 14 16 15 20 13 12 11 13 11 11 15 15 14 13 13 12 8 8 8 6 4 5 5 2 2 3 4 4 0 1 2 3 4
6 10 10 9 9 8 9 11 11 14 15 18 18 15 15 11 7 7 11 11 11 12 13 13 12 11 9 9 10 8 7 4 5 4 4 2 3 3 3 3 2 2 2
9 8 8 8 7 4 5 6 9 9 13 15 17 19 19 9 8 9 11 10 8 9 11 12 12 11 10 10 9 8 8 7 4 3 4 5 5 4 4 2 2 3 3
8 10 13 14 10 9 5 5 7 7 8 8 12 13 15 10 13 12 11 13 10 9 14 15 13 11 12 10 10 10 9 7 6 7 5 3 4 4 3 4 3 3 2
6 8 10 10 9 9 4 4 5 6 9 8 9 6 8 6 8 9 9 10 12 13 13 14 13 12 12 10 10 7 7 8 6 8 5 3 4 4 4 4 5 2 2
8 10 9 8 8 7 4 5 5 4 6 9 10 11 11 10 11 9 7 8 7 9 12 15 15 14 14 13 11 8 9 9 8 7 7 4 3 4 4 4 3 4 3
11 9 7 6 9 7 4 4 6 8 8 8 10 10 12 13 9 9 12 11 10 10 13 15 15 14 14 15 14 9 9 11 8 6 9 6 5 5 4 5 4 3 3
21 20 19 18 16 15 12 7 7 7 7 7 6 7 7 7 6 10 11 13 12 14 15 16 16 16 16 15 15 14 13 14 11 9 11 10 8 6 6 5 4 4 4
15 15 16 17 17 17 17 15 12 7 7 7 7 8 7 8 9 12 13 12 13 13 15 15 15 16 17 17 18 17 16 17 15 14 12 11 8 9 7 6 7 6 6
16 17 18 17 16 15 16 17 17 15 15 8 7 7 8 9 14 14 12 12 12 12 13 15 17 17 17 17 18 18 17 17 17 16 15 14 13 10 8 7 7 6 6
17 16 15 16 15 14 14 14 16 14 15 16 11 11 9 13 14 12 11 12 14 15 16 17 18 18 18 18 18 17 16 15 14 15 14 14 15 14 13 10 10 8 7
16 15 13 13 15 17 16 14 13 13 14 15 16 15 13 11 11 10 10 10 14 14 15 15 16 16 16 15 19 19 18 17 15 14 14 13 14 20 16 10 10 10 7
12 13 15 15 14 14 15 15 16 16 14 13 13 15 16 11 10 11 11 12 13 14 13 16 16 15 13 26 32 23 17 18 17 16 13 12 14 17 22 22 21 16 11
14 12 13 12 13 16 15 15 15 15 14 13 12 12 14 12 11 8 7 11 12 11 14 14 15 17 16 28 32 31 16 17 17 17 16 13 11 14 13 21 21 21 21
14 14 14 14 15 15 15 16 16 15 15 15 13 13 15 15 11 6 10 10 9 12 13 14 15 15 15 29 32 31 16 16 17 17 18 17 17 17 14 11 12 11 9
10 11 12 14 16 16 14 15 16 16 16 15 15 14 13 15 14 11 10 8 8 9 11 12 14 16 14 28 30 28 14 14 15 14 14 15 15 23 25 14 12 10 9
9 11 12 11 12 15 14 15 16 17 17 17 18 17 15 13 12 12 10 7 8 9 8 10 11 14 14 25 30 27 11 13 11 12 12 19 15 25 25 12 11 10 10
11 11 13 13 13 13 13 15 16 16 16 16 18 19 18 16 11 8 4 5 9 7 8 7 7 10 12 16 30 33 13 12 12 11 11 10 23 24 24 22 11 10 7
13 12 10 13 14 12 12 17 18 16 15 17 19 18 18 14 10 9 7 7 7 8 6 7 5 6 9 17 27 32 22 19 12 13 11 12 25 24 24 19 16 16 9
12 11 10 15 16 13 11 17 18 16 18 18 19 18 19 18 14 11 10 6 7 7 7 8 8 7 7 8 25 31 28 26 11 9 15 21 25 24 19 19 17 8 5
14 12 13 15 19 14 13 14 16 15 16 18 19 17 17 17 16 9 8 9 8 9 9 9 10 9 9 9 9 14 16 23 16 20 14 17 19 17 11 7 8 4 5
16 13 14 17 21 18 17 15 15 15 17 18 17 17 14 16 15 13 10 11 11 12 9 10 9 9 11 13 19 16 11 13 16 15 11 10 9 9 8 6 6 6 6
17 17 18 19 21 19 19 17 15 14 17 19 15 13 12 12 12 13 12 20 24 20 25 22 15 10 16 22 28 29 24 28 32 13 12 10 10 10 9 8 7 5 6
Wind_Direction
269 274 243 217 212 201 197 196 188 191 175 180 178 188 197 192 191 193 190 185 181 176 173 170 159 161 174 171 170 132 139 82 72 99 42 43 76 57 71 66 90 77 63
279 276 252 212 199 205 203 197 203 190 189 188 192 195 192 208 203 189 178 178 174 174 176 173 175 175 160 173 177 157 140 126 118 138 105 95 339 44 30 63 81 84 52
277 283 292 251 236 222 204 208 201 196 195 190 175 112 92 69 145 180 189 193 182 176 176 174 174 176 175 183 181 173 164 151 109 87 141 110 222 43 7 357 347 12 21
273 296 288 267 228 239 213 207 198 195 194 185 185 190 195 188 199 196 194 190 187 185 181 179 176 176 178 174 183 172 171 147 160 126 93 78 135 166 221 305 283 296 321
285 299 300 278 246 244 212 205 191 191 190 189 188 194 215 210 160 168 176 178 181 183 182 181 180 181 180 180 171 166 183 194 150 152 153 130 68 74 126 219 286 322 295
335 324 281 285 301 307 271 205 187 196 189 191 200 198 205 186 159 160 171 178 179 179 185 182 183 181 184 179 181 180 178 181 174 158 162 161 163 179 156 171 229 239 290
351 340 356 341 333 310 245 210 197 184 181 195 211 209 207 186 186 177 180 171 178 189 193 182 185 186 182 185 175 175 175 181 182 173 185 158 163 139 137 126 149 194 281
333 346 336 317 318 299 274 211 189 182 184 180 203 213 216 195 201 187 183 187 192 195 185 191 187 184 181 178 177 182 180 163 177 182 172 168 167 152 144 149 143 167 265
321 319 326 311 303 303 305 228 221 242 204 197 193 196 197 202 199 182 179 183 185 180 176 184 185 181 179 179 176 181 181 174 177 182 171 161 170 165 152 145 146 149 179
306 296 328 335 332 337 339 271 235 220 208 210 216 219 210 204 194 168 184 187 184 174 173 185 189 186 184 180 176 179 175 177 178 175 172 169 164 164 168 163 156 146 140
352 4 8 17 17 6 6 340 327 314 301 288 263 234 221 222 187 192 196 194 182 180 181 184 190 187 187 188 186 184 174 183 177 174 180 183 166 173 169 161 154 162 153
10 9 9 6 15 9 4 3 356 323 282 265 244 234 218 200 205 210 208 201 198 190 185 183 187 190 191 191 192 190 183 180 182 181 179 182 170 172 165 169 176 179 181
12 5 5 5 2 1 358 353 353 348 345 308 270 252 232 211 223 221 211 200 199 194 192 185 187 191 196 194 201 193 187 186 185 181 182 179 171 175 169 172 183 184 185
3 1 1 356 354 352 349 352 342 345 339 333 312 277 246 233 234 232 210 201 196 191 195 198 197 189 191 192 200 194 188 187 184 179 183 177 180 178 171 181 188 182 191
356 353 352 351 347 343 342 345 336 335 335 329 326 314 279 258 248 231 216 205 205 210 208 197 203 192 192 191 193 193 187 182 180 180 180 183 182 180 177 173 180 183 193
348 344 339 343 347 337 331 332 335 332 331 326 321 316 310 279 237 231 218 204 202 210 205 209 199 198 199 200 197 192 185 182 180 179 181 176 172 186 190 194 192 190 185
332 337 328 339 335 328 326 326 326 325 322 319 318 324 317 298 276 251 223 222 209 202 207 208 207 205 206 203 201 197 189 183 184 178 174 173 181 177 186 199 198 203 208
323 327 330 331 328 318 324 325 325 324 321 320 322 328 328 323 300 259 246 233 217 210 206 210 212 209 210 206 201 197 191 187 187 183 177 176 173 178 178 184 205 208 212
300 312 315 317 315 314 325 321 321 319 317 316 317 321 328 323 314 286 259 249 238 221 216 213 206 208 214 206 200 190 188 185 178 176 177 176 175 179 182 178 196 200 210
284 289 289 292 299 306 317 317 316 317 318 319 321 321 318 309 304 288 273 252 238 234 223 220 212 204 201 203 202 190 179 178 171 168 170 177 170 180 187 177 185 203 209
295 296 301 300 296 299 303 304 310 306 308 316 316 313 305 295 286 272 235 233 234 204 215 207 207 202 197 197 202 190 187 178 171 171 170 178 177 179 192 191 188 203 196
295 298 296 293 296 300 304 300 296 302 309 312 303 302 306 300 291 264 233 224 224 221 174 179 187 200 195 202 204 196 187 185 171 173 173 174 179 183 191 196 191 208 188
285 289 282 288 292 296 297 293 295 308 306 301 301 304 302 296 288 272 259 219 202 220 217 188 187 190 186 203 208 199 184 191 171 161 168 170 180 186 190 192 198 161 150
290 291 288 286 288 291 290 281 295 301 300 295 294 295 294 293 291 258 247 237 210 204 214 219 203 185 183 195 204 195 181 183 172 165 169 177 179 167 146 145 171 156 175
291 289 286 287 286 295 291 293 298 301 292 290 289 288 287 287 287 271 242 238 231 214 211 213 210 192 195 204 194 194 178 173 162 147 156 170 159 157 152 149 167 169 177
296 294 289 289 289 292 291 295 295 291 287 286 286 282 284 286 285 285 267 247 244 237 234 229 207 206 205 193 199 200 188 175 163 152 162 169 167 165 153 161 173 175 168